Terminal Aerodrome Forecast
Issued by NWS

Home | Current Version | Previous Version | Graphics & Text | Print | Product List | Glossary On
Versions: 1 2 3 4 5 6 7 8 9 10 11 12 13 14
000
FTUS43 KGRB 301828 AAA
TAFMTW
TAF AMD
KMTW 301828Z 3018/0118 36012G16KT P6SM SCT015 BKN020
     FM302200 35011KT P6SM BKN035
     FM010100 36004KT P6SM SCT050
     FM011400 35010G15KT P6SM SCT030=

USA.gov is the U.S. government's official web portal to all federal, state and local government web resources and services.